DELTA 1 DEB, 7131

Orbit data source: Space-Track

DELTA 1 DEB, 7131 is space debris in SSO originally from a launch on Tue, 06 Nov 1973 UTC launched from the Air Force Western Test Range (AFWTR). Debris objects in space refer to the collection of defunct objects orbiting the Earth. Examples of debris include non-operational satellites, rocket bodies, and fragments generated from explosions, collisions, or faulty payload assembly.

Loading next visibility...
Identifier
7131, 1973-086CV
Orbit
SSO
Country
Flag of USUS
Related business
Manufacturer
Unknown
Mission
Spacecraft
Bus & Motor
Unknown
Mass
Unknown
Launch date (UTC)
1973-11-06 (53 years ago)
Launch vehicle
Unknown
Launch site
Air Force Western Test Range (AFWTR)
Object type
Payload
Rocket body
Debris
Shape & HBR
Unknown shape, 0.1 m
Radar Cross Section
Medium (>0.1 m² and <1 m²)

Expand to show TLE details & history
Last TLE update: 1 day ago

TLE from 1 day ago
0 DELTA 1 DEB
1 07131U 73086CV  26206.29420024  .00000436  00000-0  46958-2 0  9992
2 07131 101.9030 144.0229 0163355 201.5832 315.3481 12.15185278330050
Epoch: 2026-07-25T07:03Z
TLE epoch observation values (Epoch: 2026-07-25T07:03:38.900Z)
Latitude
23.8695°
Longitude
-79.57198°
Altitude
1,524.309 km
Speed
7.146 km/s
True Right ascension
21h 57m 23s
True Declination
23° 45' 17"
Sunlit
Object was in full shadow at epoch
Visualization orbit readout
Latitude
Unknown
Longitude
Unknown
Altitude
Unknown
Speed
Unknown
Apparent Right ascension
Unknown
Apparent Declination
Unknown
Sunlit
N/A
Visualization observer readout
Local Sidereal Time
23:19:01
Azimuth
Unknown
Elevation
Unknown
Doppler factor
Unknown
Orbital elements
Apogee altitude
1,741.692 km
Perigee altitude
1,480.673 km
Semi-major axis
7,989.319 km
Eccentricity
0.01634
Inclination
101.903°
RAAN
144.0229°
Arg. of periapsis
201.5832°
True anomaly
314.01327°
Mean anomaly
315.3481°
Eccentric anomaly
314.68262°
Mean motion
3.03933 °/min
Orbital period
118.45 mins
BSTAR
0.0046958
Loading maneuver chart data...
Computing Atmospheric mass density...
Loading historical data...
Loading historical data...
Loading historical data...
Loading historical data...
Loading historical data...
Loading historical data...
Loading historical data...

Documentation

Showing up to 5 results
|